HB9ADJ Weather Reports


time (UTC)temp
F
wind
direction
speed
knots
gust
knots
rain 1hr
in
rain 24hr
in
rain mn
in
humidity
%
barometer
mb
20260507211537 51 0 0.0 0.0 0.00 0.01 0.01 84 1014.8
20260507210039 50 0 0.0 0.0 0.00 0.01 0.01 83 1014.8
20260507204548 51 0 0.0 0.0 0.00 0.01 0.01 82 1015.0
20260507203038 52 0 0.0 0.0 0.00 0.01 0.01 82 1014.6
20260507201540 52 0 0.0 0.0 0.00 0.01 0.01 80 1014.4
20260507200039 54 0 0.0 0.0 0.00 0.01 0.01 78 1014.1
20260507194534 55 0 0.0 0.0 0.00 0.01 0.01 76 1013.9
20260507193038 56 0 0.0 0.0 0.00 0.01 0.01 72 1013.5
20260507191537 59 0 0.0 2.6 0.00 0.01 0.01 66 1013.6
20260507190040 60 340 3.5 6.1 0.00 0.01 0.01 64 1013.5
20260507184538 61 344 3.5 7.0 0.00 0.01 0.01 62 1013.3
20260507183037 61 20 2.6 8.7 0.00 0.01 0.01 61 1013.3
20260507181537 62 23 4.3 8.7 0.00 0.01 0.01 60 1013.1
20260507180040 62 348 4.3 9.6 0.00 0.01 0.01 58 1013.1
20260507174540 62 20 4.3 8.7 0.00 0.01 0.01 58 1013.1
20260507173036 62 16 6.1 8.7 0.00 0.01 0.01 58 1013.0
20260507171534 63 30 5.2 9.6 0.00 0.01 0.01 53 1013.1
20260507170039 63 30 5.2 9.6 0.00 0.01 0.01 50 1013.0
20260507164538 63 11 5.2 9.6 0.00 0.02 0.01 49 1013.1
20260507163034 64 20 6.1 11.3 0.00 0.02 0.01 48 1013.1
20260507161535 63 27 6.1 11.3 0.00 0.02 0.01 48 1013.1
20260507160038 64 25 6.1 11.3 0.00 0.02 0.01 47 1013.0
20260507154540 65 349 7.0 11.3 0.00 0.02 0.01 46 1013.0
20260507153046 65 51 7.0 11.3 0.00 0.02 0.01 47 1013.1
20260507151539 65 10 7.0 11.3 0.00 0.02 0.01 45 1013.1
20260507150037 65 356 6.1 12.2 0.00 0.02 0.01 44 1013.1
20260507144534 64 333 7.0 11.3 0.00 0.02 0.01 44 1013.2
20260507143037 65 353 7.0 12.2 0.00 0.02 0.01 44 1013.2
20260507141538 65 347 6.1 12.2 0.00 0.02 0.01 46 1013.3
20260507140052 64 21 6.1 13.0 0.00 0.02 0.01 46 1013.5
20260507134535 63 354 7.8 13.0 0.00 0.02 0.01 47 1013.5
20260507133035 63 21 7.0 10.4 0.00 0.02 0.01 50 1013.6
20260507131539 63 357 7.0 12.2 0.00 0.02 0.01 50 1013.8
20260507130049 63 353 7.0 12.2 0.00 0.02 0.01 52 1013.8
20260507124541 62 27 7.8 13.9 0.00 0.02 0.01 54 1013.8
20260507123051 62 7 8.7 13.0 0.00 0.02 0.01 59 1014.0
20260507121541 62 14 7.8 13.0 0.00 0.02 0.01 60 1013.9
20260507120034 62 15 7.0 12.2 0.00 0.02 0.01 58 1013.8
20260507114543 62 22 7.8 12.2 0.00 0.02 0.01 61 1013.7
20260507113038 62 345 6.1 11.3 0.00 0.02 0.01 64 1013.9
20260507111535 61 320 7.0 11.3 0.00 0.02 0.01 63 1014.0
20260507110036 62 347 6.1 11.3 0.00 0.02 0.01 63 1014.0
20260507104534 62 351 7.0 12.2 0.00 0.02 0.01 65 1014.1
20260507103033 61 338 6.1 10.4 0.00 0.02 0.01 67 1014.2
20260507101544 61 322 5.2 10.4 0.00 0.02 0.01 67 1014.2
20260507100037 61 344 6.1 10.4 0.00 0.02 0.01 68 1014.4
20260507094536 60 359 4.3 8.7 0.00 0.09 0.01 72 1014.2
20260507093038 60 312 4.3 8.7 0.00 0.09 0.01 71 1014.3
20260507091537 59 330 4.3 7.8 0.00 0.09 0.01 71 1014.5
20260507090038 59 309 3.5 7.0 0.00 0.09 0.01 72 1014.5
20260507084536 58 338 2.6 5.2 0.00 0.28 0.01 69 1014.5
20260507083041 57 23 2.6 4.3 0.00 0.28 0.01 76 1014.5
20260507081537 56 94 0.9 2.6 0.00 0.28 0.01 80 1014.4
20260507080047 54 82 2.6 3.5 0.00 0.28 0.01 80 1014.5
20260507074543 55 88 0.9 2.6 0.00 0.33 0.01 80 1014.3
20260507073035 54 83 1.7 2.6 0.00 0.33 0.01 83 1014.6
20260507071552 53 86 1.7 3.5 0.00 0.33 0.01 86 1014.4
20260507070039 54 179 0.0 1.7 0.00 0.33 0.01 91 1014.5
20260507064540 52 0 0.0 0.0 0.00 0.33 0.01 95 1014.5
20260507063039 49 0 0.0 0.0 0.00 0.33 0.01 95 1014.7
20260507061536 48 0 0.0 0.0 0.00 0.33 0.01 95 1014.6
20260507060035 48 0 0.0 0.0 0.00 0.33 0.01 95 1014.6
20260507054536 49 0 0.0 0.0 0.00 0.33 0.01 95 1014.6
20260507053041 48 0 0.0 0.0 0.00 0.33 0.01 95 1014.5
20260507051532 48 159 0.0 0.9 0.00 0.33 0.01 95 1014.4
20260507050037 48 0 0.0 0.0 0.00 0.33 0.01 95 1014.2
20260507044533 47 0 0.0 0.9 0.00 0.33 0.01 95 1014.0
20260507043040 47 0 0.0 0.0 0.00 0.33 0.01 95 1013.8
20260507041538 47 0 0.0 0.0 0.00 0.33 0.01 95 1013.6
20260507040045 47 0 0.0 0.0 0.00 0.33 0.01 95 1013.5
20260507034535 47 0 0.0 0.0 0.00 0.33 0.01 94 1013.6
20260507033043 47 0 0.0 0.0 0.00 0.33 0.01 94 1013.3
20260507031538 48 0 0.0 0.0 0.00 0.33 0.01 94 1013.5
20260507030039 48 0 0.0 0.0 0.00 0.33 0.01 94 1013.5
20260507024537 48 0 0.0 0.0 0.00 0.33 0.01 94 1013.4
20260507023036 48 0 0.0 0.9 0.00 0.33 0.01 94 1013.5
20260507021535 48 123 0.0 1.7 0.00 0.33 0.01 94 1013.3
20260507020034 48 0 0.0 1.7 0.00 0.33 0.01 94 1013.3
20260507014532 49 0 0.0 2.6 0.00 0.33 0.01 94 1013.3
20260507013040 49 160 0.0 0.0 0.00 0.33 0.01 94 1013.4
20260507011539 49 0 0.0 1.7 0.00 0.33 0.01 94 1013.4
20260507010036 49 0 0.0 2.6 0.01 0.33 0.01 94 1013.4
20260507004533 49 0 0.0 0.0 0.00 0.32 0.00 94 1013.6
20260507003031 49 0 0.0 3.5 0.00 0.32 0.00 94 1013.5
20260507001546 49 0 0.0 0.9 0.00 0.32 0.00 94 1013.7
20260507000031 49 0 0.0 0.0 0.00 0.31 0.00 94 1013.6
20260506234543 49 0 0.0 0.9 0.00 0.31 0.00 94 1013.3
20260506233034 48 0 0.0 0.0 0.00 0.31 0.00 94 1013.2
20260506231537 48 0 0.0 0.0 0.00 0.31 0.00 94 1013.2
20260506230035 48 0 0.0 0.0 0.00 0.31 0.00 93 1013.1
20260506224538 48 0 0.0 0.0 0.00 0.32 0.00 93 1012.9
20260506223036 48 0 0.0 0.0 0.00 0.32 0.00 93 1012.7
20260506221535 48 0 0.0 0.9 0.00 0.32 0.00 93 1012.8
20260506220039 48 0 0.0 0.0 0.00 0.32 0.00 93 1012.7
20260506214539 48 0 0.0 0.0 0.00 0.32 0.32 92 1012.9
20260506213038 49 0 0.0 1.7 0.00 0.32 0.32 92 1012.8